This is the latest recevied weather packets stored in our database for station/object OE3TEC-15. If no packets are shown the sender has not sent any weather packets the latest 10 day(s).
| Time | Temp. | Humidity | Pressure | Rain* | Wind** | Luminosity | Snow |
|---|---|---|---|---|---|---|---|
| 1777926086 | 18.89° C | 42% | 1011.6 hPa | 0 mm | - | 0 W/m² | - |
| 1777925477 | 18.89° C | 41% | 1011.5 hPa | 0 mm | - | 0 W/m² | - |
| 1777924870 | 19.44° C | 39% | 1011.6 hPa | 0 mm | - | 0 W/m² | - |
| 1777924263 | 19.44° C | 39% | 1011.8 hPa | 0 mm | - | 0 W/m² | - |
| 1777923656 | 20° C | 38% | 1011.6 hPa | 0 mm | - | 0 W/m² | - |
| 1777923048 | 20° C | 37% | 1011.8 hPa | 0 mm | - | 0 W/m² | - |
| 1777922441 | 20° C | 37% | 1011.9 hPa | 0 mm | - | 0 W/m² | - |
| 1777921834 | 20.56° C | 36% | 1011.8 hPa | 0 mm | - | 0 W/m² | - |
| 1777921227 | 20.56° C | 35% | 1011.9 hPa | 0 mm | - | 0 W/m² | - |
| 1777920620 | 21.11° C | 35% | 1011.9 hPa | 0 mm | - | 0 W/m² | - |
| 1777920013 | 21.11° C | 34% | 1011.8 hPa | 0 mm | - | 0 W/m² | - |
| 1777919405 | 21.67° C | 34% | 1011.8 hPa | 0 mm | - | 0 W/m² | - |
| 1777918798 | 21.67° C | 34% | 1011.8 hPa | 0 mm | - | 1 W/m² | - |
| 1777918191 | 21.67° C | 34% | 1011.8 hPa | 0 mm | - | 3 W/m² | - |
| 1777917583 | 22.22° C | 33% | 1011.8 hPa | 0 mm | - | 7 W/m² | - |
| 1777916976 | 22.78° C | 33% | 1011.8 hPa | 0 mm | - | 12 W/m² | - |
| 1777916369 | 22.78° C | 32% | 1011.9 hPa | 0 mm | - | 18 W/m² | - |
| 1777915763 | 23.33° C | 32% | 1011.8 hPa | 0 mm | - | 26 W/m² | - |
| 1777915155 | 23.89° C | 31% | 1011.8 hPa | 0 mm | - | 34 W/m² | - |
| 1777914548 | 23.89° C | 31% | 1012 hPa | 0 mm | - | 41 W/m² | - |
| 1777913941 | 23.89° C | 31% | 1011.9 hPa | 0 mm | - | 41 W/m² | - |
| 1777913333 | 24.44° C | 32% | 1011.9 hPa | 0 mm | - | 37 W/m² | - |
| 1777912726 | 25° C | 30% | 1012.1 hPa | 0 mm | - | 39 W/m² | - |
| 1777912119 | 25° C | 30% | 1012.1 hPa | 0 mm | - | 46 W/m² | - |
| 1777911511 | 25.56° C | 29% | 1012.2 hPa | 0 mm | - | 59 W/m² | - |
* Rain latest hour (hover to see other rain measurements)
** Current wind speed in m/s (hover to see current wind gust speed)